Regional Weather Roundup
Issued by NWS

Home | Current Version | Previous Version | Graphics & Text | Print | Product List | Glossary On
Versions: 1 2 3 4 5 6 7 8 9 10 11 12 13 14 15 16 17 18 19 20 21 22 23 24 25 26 27 28 29 30 31 32 33 34 35 36 37 38 39 40 41 42 43 44 45 46 47 48 49 50
000
ASUS43 KOAX 250910
RWRNE

WEATHER ROUNDUP FOR NEBRASKA
NATIONAL WEATHER SERVICE OMAHA NE
400 AM CDT THU MAY 25 2017

NOTES: SATELLITE DATA IS BEING USED TO AUGMENT CLOUD COVER ABOVE
       12000 FEET.
       "FAIR" INDICATES FEW OR NO CLOUDS BELOW 12,000 FEET WITH NO
       SIGNIFICANT WEATHER AND/OR OBSTRUCTIONS TO VISIBILITY.

  * THESE STATIONS DO NOT REPORT WEATHER SUCH AS RAIN...SNOW OR FOG.

NEZ001>004-019>022-054>056-251000-
NEBRASKA PANHANDLE

CITY           SKY/WX    TMP DP  RH WIND       PRES   REMARKS
SCOTTSBLUFF    CLOUDY    55  45  68 CALM      29.46R
ALLIANCE       CLEAR     47  44  90 S7        29.45F
CHADRON        CLEAR     57  49  74 W7        29.43R
GORDON         FAIR      54  46  75 SW7       29.43R
KIMBALL        PTCLDY    56  41  57 SW9       29.53S
SIDNEY         CLOUDY    57  44  62 W18G24    29.50R
$$

NEZ057>060-069>072-079>082-251000-
SOUTHWEST NEBRASKA

CITY           SKY/WX    TMP DP  RH WIND       PRES   REMARKS
NORTH PLATTE   CLEAR     53  45  74 SE5       29.52R
IMPERIAL       CLOUDY    56  45  66 S13       29.48F
LEXINGTON      CLEAR     52  45  75 SE12      29.55S
MCCOOK         CLEAR     50  45  83 SE8       29.53S
OGALLALA       CLEAR     51  45  79 CALM      29.49S
$$

NEZ005>010-023>029-035>040-094-251000-
NORTH CENTRAL NEBRASKA

CITY           SKY/WX    TMP DP  RH WIND       PRES   REMARKS
VALENTINE      CLEAR     57  41  55 S22G29    29.40F
AINSWORTH      CLEAR     53  45  74 S25G32    29.43F
BROKEN BOW     CLEAR     52  44  74 S15G25    29.53S
O`NEILL        PTCLDY    55  42  62 S21G28    29.52S
ORD            MOCLDY    52  43  71 SE12      29.55S
THEDFORD       PTCLDY    54  44  68 S9        29.49R
$$

NEZ041-046>049-061>064-073>077-083>087-251000-
SOUTH CENTRAL NEBRASKA

CITY           SKY/WX    TMP DP  RH WIND       PRES   REMARKS
GRAND ISLAND   PTCLDY    54  45  71 S10       29.61R
AURORA         CLEAR     52  45  76 S10       29.60S
HASTINGS       MOCLDY    54  43  66 VRB5G25   29.62R
HEBRON         CLEAR     51  45  79 SE6       29.62F
HOLDREGE       CLEAR     51  43  74 S15G21    29.56F
KEARNEY *      PTCLDY    52  43  71 S14       29.58S
YORK           CLEAR     50  45  81 S8        29.63R
$$

NEZ011>018-030>034-042>045-251000-
NORTHEAST NEBRASKA

CITY           SKY/WX    TMP DP  RH WIND       PRES   REMARKS
NORFOLK        CLEAR     52  42  69 S15       29.59S
ALBION         CLOUDY    53  44  71 S10       29.60R
BLAIR          CLEAR     51  47  86 SE5       29.64F
FREMONT        CLEAR     52  45  76 SE8       29.64S
TEKAMAH        CLEAR     50  32  50 SE10      29.63F
WAYNE          CLEAR     48  45  89 S10       29.60S
$$

NEZ050>053-065>068-078-088>093-251000-
SOUTHEAST NEBRASKA

CITY           SKY/WX    TMP DP  RH WIND       PRES   REMARKS
LINCOLN        CLEAR     47  43  86 S6        29.65S
OMAHA EPPLEY   CLEAR     50  44  80 SE6       29.65F
BEATRICE       CLEAR     51  45  82 SE5       29.64S
FALLS CITY     CLEAR     49  47  93 SE5       29.67S
NEBRASKA CITY  CLEAR     50  45  84 S6        29.66F
PLATTSMOUTH    CLEAR     53  49  84 SE7       29.65F
$$

NEZ044-045-051>053-067-251000-
OMAHA AREA

CITY           SKY/WX    TMP DP  RH WIND       PRES   REMARKS
OMAHA EPPLEY   CLEAR     50  44  80 SE6       29.65F
BLAIR          CLEAR     51  47  86 SE5       29.64F
FREMONT        CLEAR     52  45  76 SE8       29.64S
MILLARD        CLEAR     51  49  90 SE3       29.65S
OFFUTT AFB     CLEAR     44  43  95 SE3       29.65S
PLATTSMOUTH    CLEAR     53  49  84 SE7       29.65F
WAHOO          FAIR      47  43  85 SE6       29.63F
$$



USA.gov is the U.S. government's official web portal to all federal, state and local government web resources and services.